Madison, WI

11:15 PM CDT on September 23, 2017 (GMT -0500)
Dane County Regional-Truax

Weather History for KMSN - June, 2013

Change the Weather History Date:

Thursday, June 13, 2013

  Actual Average Record
Temperature  
Mean Temperature 68 °F 66 °F  
Max Temperature 78 °F 77 °F 95 °F (1956)
Min Temperature 58 °F 56 °F 36 °F (1965)
Degree Days  
Heating Degree Days 0 2  
Month to date heating degree days 48 42  
Since 1 June heating degree days 48 42  
Since 1 July heating degree days 7233 7315  
Cooling Degree Days 3 4  
Month to date cooling degree days 27 33  
Year to date cooling degree days 80 63  
Since 1 June cooling degree days 27 33  
Growing Degree Days 18 (Base 50)    
Moisture  
Dew Point 57 °F    
Average Humidity 69    
Maximum Humidity 90    
Minimum Humidity 47    
Precipitation  
Precipitation 0.00 in 0.15 in 2.24 in (2000)
Month to date precipitation 2.62 1.95  
Year to date precipitation 22.71 13.78  
Snow  
Snow 0.00 in 0.00 in 0.00 in ()
Month to date snowfall 0.0 0.0  
Since 1 June snowfall 0.0 0.0  
Since 1 July snowfall 70.6 50.9  
Snow Depth 0.00 in    
Sea Level Pressure  
Sea Level Pressure 29.94 in    
Wind  
Wind Speed 7 mph (North)    
Max Wind Speed 18 mph    
Max Gust Speed 23 mph    
Visibility 10 miles    
Events      
T = Trace of Precipitation, MM = Missing Value Source: NWS Daily Summary

Daily Weather History Graph

Daily Weather History Graph

Search for Another Location

Airport or City:

Trip Planner

Search our weather history database for the weather conditions in past years. The results will help you decide how hot, cold, wet, or windy it might be!

Date:

Astronomy

Jun. 13, 2013 Rise Set
Actual Time 5:17 AM CDT 8:38 PM CDT
Civil Twilight 4:41 AM CDT 9:13 PM CDT
Nautical Twilight 3:55 AM CDT 9:59 PM CDT
Astronomical Twilight 2:58 AM CDT 10:56 PM CDT
Moon 10:00 AM CDT (6/13) 11:37 PM CDT (6/13)
Length of Visible Light 16h 31m
Length of Day
15h 20m
Waxing Crescent, 22% of the Moon is Illuminated
Jun 13
Waxing Crescent
Jun 16
First Quarter
Jun 23
Full
Jun 29
Last Quarter
Jul 8
New

Hourly Weather History & Observations

Time (CDT) Temp. Dew Point Humidity Pressure Visibility Wind Dir Wind Speed Gust Speed Precip Events Conditions
12:19 AM 62.6 °F 59.0 °F 88% 29.77 in 10.0 mi North 11.5 mph - N/A   Overcast
12:53 AM 60.1 °F 57.0 °F 90% 29.76 in 10.0 mi North 8.1 mph - N/A   Partly Cloudy
1:53 AM 60.1 °F 57.0 °F 90% 29.79 in 10.0 mi NNW 5.8 mph - N/A   Scattered Clouds
2:53 AM 60.1 °F 55.9 °F 86% 29.81 in 10.0 mi NNW 8.1 mph - N/A   Mostly Cloudy
3:53 AM 60.1 °F 55.9 °F 86% 29.83 in 10.0 mi NNW 8.1 mph - N/A   Scattered Clouds
4:53 AM 59.0 °F 55.9 °F 90% 29.84 in 10.0 mi NNW 6.9 mph - N/A   Clear
5:53 AM 59.0 °F 55.0 °F 87% 29.88 in 10.0 mi NNW 5.8 mph - N/A   Partly Cloudy
6:53 AM 62.1 °F 55.9 °F 80% 29.90 in 10.0 mi North 6.9 mph - N/A   Clear
7:53 AM 66.0 °F 57.0 °F 73% 29.93 in 10.0 mi North 10.4 mph - N/A   Scattered Clouds
8:53 AM 68.0 °F 55.9 °F 65% 29.94 in 10.0 mi North 11.5 mph - N/A   Partly Cloudy
9:53 AM 70.0 °F 57.9 °F 65% 29.96 in 10.0 mi North 10.4 mph - N/A   Scattered Clouds
10:53 AM 72.0 °F 59.0 °F 64% 29.97 in 10.0 mi NNE 8.1 mph - N/A   Partly Cloudy
11:53 AM 73.0 °F 57.9 °F 59% 29.98 in 10.0 mi NNW 4.6 mph - N/A   Partly Cloudy
12:53 PM 73.9 °F 55.9 °F 53% 29.99 in 10.0 mi NW 6.9 mph - N/A   Mostly Cloudy
1:53 PM 77.0 °F 55.9 °F 48% 29.98 in 10.0 mi North 12.7 mph 16.1 mph N/A   Scattered Clouds
2:53 PM 75.9 °F 57.0 °F 52% 29.99 in 10.0 mi NNW 11.5 mph - N/A   Mostly Cloudy
3:53 PM 77.0 °F 55.9 °F 48% 29.99 in 10.0 mi NNE 11.5 mph 20.7 mph N/A   Scattered Clouds
4:53 PM 75.9 °F 55.0 °F 48% 29.99 in 10.0 mi North 11.5 mph - N/A   Scattered Clouds
5:53 PM 73.0 °F 55.0 °F 53% 29.99 in 10.0 mi North 10.4 mph - N/A   Scattered Clouds
6:53 PM 73.0 °F 57.0 °F 57% 30.00 in 10.0 mi NE 6.9 mph - N/A   Partly Cloudy
7:53 PM 71.1 °F 57.0 °F 61% 30.02 in 10.0 mi NE 4.6 mph - N/A   Partly Cloudy
8:53 PM 66.0 °F 57.0 °F 73% 30.03 in 10.0 mi Calm Calm - N/A   Scattered Clouds
9:53 PM 63.0 °F 57.9 °F 84% 30.04 in 10.0 mi Calm Calm - N/A   Partly Cloudy
10:53 PM 61.0 °F 57.9 °F 90% 30.04 in 10.0 mi Calm Calm - N/A   Partly Cloudy
11:53 PM 62.1 °F 57.0 °F 84% 30.06 in 10.0 mi East 8.1 mph - N/A   Clear